STARLINK-31769 (59617 NORAD) Tracking and Keplerian Element Data

This shows tracking and keplerian element data for the satellite.

Feedback or suggestion? Click here.




ElementValue
Catalog59617
NameSTARLINK-31769
Epoch Orbit749
Epoch Day160.08429851
Epoch Year2024
RAAN88.1095
Inclination43.0025
Eccentricity0.0001922
Argument of Perigee261.8666
Mean Anonmoly98.1973
Mean Motion15.40718372
Decay Rate5.458E-05
L11 59617U 24080S 24160.08429851 .00005458 00000+0 13776-3 0 9990
L22 59617 43.0025 88.1095 0001922 261.8666 98.1973 15.40718372 7499



Live tracking and technical data element details for STARLINK-31769 (NORAD 59617). STARLINK-31769 can be tracked NOW for your location showing map with azimuth and elevation plus other details from your city location.







IsCatalogInMostPopularTable: catalog: 59617, numindb: 11
Update: records affected: 1



GetName: 59617 STARLINK-31769

Hit Count: updated at: Fri, 14 Jun 2024 19:41:25 GMT